Regional Weather Roundup
Issued by NWS

Home | Current Version | Previous Version | Graphics & Text | Print | Product List | Glossary On
Versions: 1 2 3 4 5 6 7 8 9 10 11 12 13 14 15 16 17 18 19 20 21 22 23 24 25 26 27 28 29 30 31 32 33 34 35 36 37 38 39 40 41 42 43 44 45 46 47 48 49 50
000
ASUS45 KABQ 262301
RWRNM
NEW MEXICO REGIONAL WEATHER ROUNDUP
NATIONAL WEATHER SERVICE ALBUQUERQUE NM
500 PM MDT MON JUN 26 2017

NOTE: "FAIR" MEANS FEW OR NO CLOUDS BELOW 12,000 FEET AGL WITH NO
       SIGNIFICANT WEATHER OR OBSTRUCTIONS TO VISION.

      THIS PRODUCT IS RELEASED AS TWO VERSIONS.  ONE VERSION NEAR
      THE TOP OF THE HOUR CONTAINING PRELIMINARY DATA FROM ALBUQUERQUE
      AND OTHER STATIONS.  A FINAL VERSION WITH ADDITIONAL DATA IS
      ISSUED ABOUT 10 MINUTES AFTER THE HOUR.

NMZ501-503-504-510>518-270000-
NORTHWEST PLATEAU/NORTHCENTRAL MOUNTAINS

CITY           SKY/WX    TMP DP  RH WIND       PRES   REMARKS
FARMINGTON     FAIR      93  28  10 SW13      30.08F
LOS ALAMOS     CLOUDY    69  47  45 SW9       30.31S
SANTA FE       PTSUNNY   77  33  20 W24G36    30.25R
TAOS           FAIR      81  28  15 E6        30.29S
ANGEL FIRE     FAIR      57  49  73 S8        30.42F

$$
NMZ402-403-502-505>509-270000-
WESTCENTRAL MOUNTAINS/SOUTHWEST MOUNTAINS

CITY           SKY/WX    TMP DP  RH WIND       PRES   REMARKS
GALLUP         FAIR      89  33  13 VRB7      30.22F
GRANTS         FAIR      81  37  20 E10       30.25F
SILVER CITY    FAIR      84  47  27 CALM      30.20S

$$
NMZ407-409-411-412-270000-
SOUTHERN DESERTS

CITY           SKY/WX    TMP DP  RH WIND       PRES   REMARKS
DEMING         FAIR      92  48  22 SW6       30.09F
LAS CRUCES     FAIR      90  51  25 SE6       30.11F
HOLLOMAN AFB   SUNNY     91  49  23 VRB5      30.09F
ALAMOGORDO     FAIR      90  48  24 SE5       30.09F
T OR C         FAIR      88  49  25 SW10      30.13R

$$
NMZ519>523-270000-
CENTRAL VALLEYS/CENTRAL HIGHLANDS

CITY           SKY/WX    TMP DP  RH WIND       PRES   REMARKS
ALBUQUERQUE    PTSUNNY   88  43  20 SW8       30.13F
DOUBLE EAGLE   PTSUNNY   88  48  25 SW10G20   30.17F
MORIARTY ARPT  TSTM      69  52  54 NE13G28   30.25R
CLINES CORNERS LGT RAIN  70  39  32 S14G35    30.33R
BELEN          NOT AVBL
SOCORRO        PTSUNNY   86  37  17 SW17G24   30.12S

$$
NMZ524>526-539-540-270000-
SOUTHCENTRAL MOUNTAINS

CITY           SKY/WX    TMP DP  RH WIND       PRES   REMARKS
RUIDOSO        FAIR      72  54  53 SE14G21   30.32F

$$
NMZ527>531-270000-
NORTHEAST HIGHLANDS/NORTHEAST PLAINS

CITY           SKY/WX    TMP DP  RH WIND       PRES   REMARKS
LAS VEGAS      LGT RAIN  69  38  32 N15G32    30.31F
RATON          FAIR      78  52  40 SW13      30.23F
CLAYTON        FAIR      83  52  34 S20G25    30.15F

$$
NMZ532>537-270000-
EASTCENTRAL PLAINS

CITY           SKY/WX    TMP DP  RH WIND       PRES   REMARKS
SANTA ROSA     FAIR      81  52  36 S6        30.15F
TUCUMCARI      FAIR      89  53  29 S9        30.09F
CANNON AFB     FAIR      83  59  43 SE13      30.16F
CLOVIS AIRPORT FAIR      82  58  43 S12       30.16F

$$
NMZ028-029-538-270000-
SOUTHEAST PLAINS

CITY           SKY/WX    TMP DP  RH WIND       PRES   REMARKS
ROSWELL        FAIR      87  55  33 S9        30.10F
ARTESIA        FAIR      86  57  37 E9        30.10F
CARLSBAD       FAIR      84  64  50 VRB3      30.07F
HOBBS          MOSUNNY   84  59  42 NE7       30.12F


$$




USA.gov is the U.S. government's official web portal to all federal, state and local government web resources and services.